Showing default

LEMUR 2 LEIA-PHILIP, 63246

Orbit data source: Space-Track

LEMUR 2 LEIA-PHILIP, 63246 is a payload satellite owned by Spire (US) in SSO that was launched on Sat, 15 Mar 2025 UTC via an FALCON 9 launch vehicle from the Air Force Western Test Range (AFWTR). Payload-class satellites include a variety of spacecraft equipped with specific instruments for various scientific and technological missions. These include communications satellites like Starlink; space stations such as the ISS; scientific satellites like the Hubble; Earth observation satellites from companies like Planet Labs, Umbra, and HawkEye 360; GPS; miniature CubeSats for education and research; and military/defense satellites.

Loading next visibility...
Identifier
63246, 2025-052AN
Orbit
SSO
Last TLE update
8 hours ago
Origin
Manufacturer
Spire/Glasgow
Mission
Operational Commercial Com/MetRO
Bus & Motor
CUBESAT 6U, Unknown motor
Mass
10 kg wet, 10 kg dry
Launch date (UTC)
2025-03-15 (3 months ago)
Launch vehicle
FALCON 9
Launch site
Air Force Western Test Range (AFWTR)
Object type
Payload
Rocket body
Debris
Shape & HBR
Box, 0.3 m
Radar Cross Section
0.035 m², Small (<0.1 m²)

Expand to show TLE details & history

TLE from 8 hours ago
0 LEMUR 2 LEIA-PHILIP
1 63246U 25052AN  25169.94897155  .00003523  00000-0  34673-3 0  9995
2 63246  97.7238  63.2858 0004730  21.0618 339.0795 14.92709283 14391
Epoch: 2025-06-18T22:46Z
TLE epoch observation values (Epoch: 2025-06-18T22:46:31.141Z)
Latitude
-0.00008°
Longitude
174.23238°
Altitude
589.457 km
Speed
7.567 km/s
True Right ascension
04h 13m 08s
True Declination
0° 00' 00"
Sunlit
Object was in daylight at epoch
Visualization orbit readout
Latitude
-55.69134°
Longitude
-174.0478°
Altitude
610.321 km
Speed
7.553 km/s
Apparent Right ascension
05h 13m 36s
Apparent Declination
-48° 01' 40"
Sunlit
Object is in daylight
Visualization observer readout
Local Sidereal Time
17:24:33
Azimuth
167.288° S
Elevation
-81.654°
Doppler factor
1
Orbital elements
Apogee altitude
589.802 km
Perigee altitude
583.214 km
Semi-major axis
6,964.645 km
Eccentricity
0.00047
Inclination
97.7238°
RAAN
63.2858°
Arg. of periapsis
21.0618°
True anomaly
Unknown
Mean anomaly
339.0795°
Eccentric anomaly
Unknown
Mean motion
3.73418 °/min
Orbital period
96.41 mins
BSTAR
0.00034673
Loading maneuver chart data...
Loading SW <> Apogee altitude chart data...
Loading historical data...
Loading historical data...
Loading historical data...
Loading historical data...
Loading historical data...
Loading historical data...
Loading historical data...

LEMUR 2 LEIA-PHILIP Visibility forecast

Observer location: undefined°, undefined°

Span
Click to sort rows by Start time (UTC) header in descending order
Start Az.
Max El. time (UTC)
Max El. Az.
Max El.
End time (UTC)
End Az.
7 mins2025-06-19 16:36:03.696Z148.137° SSE2025-06-19 16:39:03.696Z91.229° ESE38.332°2025-06-19 16:43:03.696Z358.418° N
6 mins2025-06-20 05:55:03.696Z5.72° NNE2025-06-20 05:58:03.696Z256.715° W43.35°2025-06-20 06:01:03.696Z201.669° SSW
|